When you browse on this site, cookies collect data to enhance your experience and personalize the content and advertising you see.
Visit our Privacy Policy to learn more. By continuing to use the site, you agree to this use of cookies and data.

Stündliche Wetter Bolshie Lipyagi

Heute, 27 September, Sonntag

Zeit Temperatur Niederschläge Wind Luftdruck Luftfeuchtigkeit
00:00 +12°C° 0 mm 5 m/S 757 mmHg 43%
01:00 +10°C° 0 mm 5 m/S 757 mmHg 45%
02:00 +10°C° 0 mm 5 m/S 757 mmHg 47%
03:00 +10°C° 0 mm 4 m/S 758 mmHg 49%
04:00 +9°C° 0 mm 5 m/S 758 mmHg 51%
05:00 +8°C° 0 mm 5 m/S 758 mmHg 53%
06:00 +8°C° 0 mm 5 m/S 758 mmHg 55%
07:00 +9°C° 0 mm 5 m/S 758 mmHg 51%
08:00 +11°C° 0 mm 6 m/S 758 mmHg 47%
09:00 +13°C° 0 mm 6 m/S 758 mmHg 43%
10:00 +15°C° 0 mm 6 m/S 758 mmHg 39%
11:00 +16°C° 0 mm 7 m/S 758 mmHg 35%
12:00 +18°C° 0 mm 7 m/S 758 mmHg 31%
13:00 +18°C° 0 mm 7 m/S 758 mmHg 30%
14:00 +20°C° 0 mm 7 m/S 758 mmHg 29%
15:00 +20°C° 0 mm 6 m/S 758 mmHg 28%
16:00 +19°C° 0 mm 6 m/S 758 mmHg 31%
17:00 +16°C° 0 mm 5 m/S 758 mmHg 34%
18:00 +15°C° 0 mm 4 m/S 758 mmHg 37%
19:00 +14°C° 0 mm 5 m/S 758 mmHg 38%
20:00 +13°C° 0 mm 5 m/S 759 mmHg 39%
21:00 +13°C° 0 mm 5 m/S 759 mmHg 40%
22:00 +12°C° 0 mm 5 m/S 759 mmHg 41%
23:00 +12°C° 0 mm 5 m/S 759 mmHg 42%

Morgen, 28 September, Montag

Zeit Temperatur Niederschläge Wind Luftdruck Luftfeuchtigkeit
00:00 +10°C° 0 mm 5 m/S 759 mmHg 43%
01:00 +10°C° 0 mm 5 m/S 760 mmHg 44%
02:00 +9°C° 0 mm 5 m/S 760 mmHg 44%
03:00 +9°C° 0 mm 5 m/S 760 mmHg 44%
04:00 +9°C° 0 mm 5 m/S 760 mmHg 45%
05:00 +8°C° 0 mm 5 m/S 760 mmHg 46%
06:00 +8°C° 0 mm 5 m/S 760 mmHg 47%
07:00 +9°C° 0 mm 5 m/S 760 mmHg 44%
08:00 +11°C° 0 mm 6 m/S 760 mmHg 41%
09:00 +13°C° 0 mm 6 m/S 761 mmHg 38%
10:00 +15°C° 0 mm 6 m/S 761 mmHg 36%
11:00 +16°C° 0 mm 6 m/S 761 mmHg 33%
12:00 +17°C° 0 mm 6 m/S 761 mmHg 31%
13:00 +19°C° 0 mm 6 m/S 761 mmHg 30%
14:00 +19°C° 0 mm 6 m/S 760 mmHg 30%
15:00 +19°C° 0 mm 6 m/S 760 mmHg 29%
16:00 +17°C° 0 mm 5 m/S 760 mmHg 31%
17:00 +17°C° 0 mm 4 m/S 760 mmHg 34%
18:00 +16°C° 0 mm 3 m/S 760 mmHg 37%
19:00 +14°C° 0 mm 3 m/S 760 mmHg 38%
20:00 +14°C° 0 mm 4 m/S 760 mmHg 39%
21:00 +13°C° 0 mm 4 m/S 761 mmHg 39%
22:00 +13°C° 0 mm 4 m/S 760 mmHg 40%
23:00 +12°C° 0 mm 4 m/S 760 mmHg 41%

übermorgen, 29 September, Dienstag

Zeit Temperatur Niederschläge Wind Luftdruck Luftfeuchtigkeit
00:00 +12°C° 0 mm 4 m/S 760 mmHg 42%
01:00 +11°C° 0 mm 4 m/S 761 mmHg 43%
02:00 +11°C° 0 mm 4 m/S 761 mmHg 44%
03:00 +10°C° 0 mm 4 m/S 761 mmHg 45%
04:00 +10°C° 0 mm 4 m/S 761 mmHg 45%
05:00 +10°C° 0 mm 4 m/S 761 mmHg 46%
06:00 +10°C° 0 mm 4 m/S 761 mmHg 46%
07:00 +11°C° 0 mm 4 m/S 761 mmHg 43%
08:00 +13°C° 0 mm 5 m/S 761 mmHg 39%
09:00 +15°C° 0 mm 5 m/S 760 mmHg 35%
10:00 +16°C° 0 mm 6 m/S 760 mmHg 32%
11:00 +17°C° 0 mm 6 m/S 760 mmHg 29%
12:00 +19°C° 0 mm 6 m/S 760 mmHg 26%
13:00 +19°C° 0 mm 6 m/S 760 mmHg 26%
14:00 +19°C° 0 mm 6 m/S 759 mmHg 26%
15:00 +20°C° 0 mm 6 m/S 759 mmHg 26%
16:00 +17°C° 0 mm 5 m/S 759 mmHg 29%
17:00 +16°C° 0 mm 5 m/S 759 mmHg 32%
18:00 +14°C° 0 mm 4 m/S 758 mmHg 36%
19:00 +14°C° 0 mm 4 m/S 758 mmHg 37%
20:00 +13°C° 0 mm 4 m/S 758 mmHg 39%
21:00 +13°C° 0 mm 4 m/S 758 mmHg 41%
22:00 +12°C° 0 mm 4 m/S 758 mmHg 42%
23:00 +12°C° 0 mm 4 m/S 758 mmHg 43%

30 September, Mittwoch

Zeit Temperatur Niederschläge Wind Luftdruck Luftfeuchtigkeit
00:00 +11°C° 0 mm 4 m/S 758 mmHg 44%
01:00 +11°C° 0 mm 4 m/S 758 mmHg 47%
02:00 +11°C° 0 mm 4 m/S 758 mmHg 49%
03:00 +10°C° 0 mm 4 m/S 757 mmHg 51%
04:00 +10°C° 0 mm 4 m/S 757 mmHg 54%
05:00 +10°C° 0 mm 4 m/S 757 mmHg 57%
06:00 +8°C° 0 mm 4 m/S 757 mmHg 60%
07:00 +10°C° 0 mm 5 m/S 757 mmHg 56%
08:00 +13°C° 0 mm 6 m/S 757 mmHg 52%
09:00 +15°C° 0 mm 6 m/S 757 mmHg 48%
10:00 +16°C° 0 mm 7 m/S 757 mmHg 43%
11:00 +18°C° 0 mm 7 m/S 757 mmHg 38%
12:00 +20°C° 0 mm 7 m/S 756 mmHg 34%
13:00 +20°C° 0 mm 7 m/S 756 mmHg 32%
14:00 +21°C° 0 mm 7 m/S 756 mmHg 31%
15:00 +21°C° 0 mm 7 m/S 756 mmHg 30%
16:00 +19°C° 0 mm 6 m/S 755 mmHg 32%
17:00 +17°C° 0 mm 5 m/S 755 mmHg 35%
18:00 +15°C° 0 mm 4 m/S 755 mmHg 37%
19:00 +15°C° 0 mm 5 m/S 755 mmHg 40%
20:00 +14°C° 0 mm 5 m/S 755 mmHg 44%
21:00 +13°C° 0 mm 5 m/S 755 mmHg 47%
22:00 +13°C° 0 mm 5 m/S 755 mmHg 49%
23:00 +13°C° 0 mm 5 m/S 755 mmHg 50%

1 Oktober, Donnerstag

Zeit Temperatur Niederschläge Wind Luftdruck Luftfeuchtigkeit
00:00 +13°C° 0 mm 5 m/S 755 mmHg 52%
01:00 +12°C° 0 mm 5 m/S 755 mmHg 53%
02:00 +12°C° 0 mm 5 m/S 756 mmHg 55%
03:00 +12°C° 0 mm 5 m/S 756 mmHg 56%
04:00 +10°C° 0 mm 5 m/S 756 mmHg 57%
05:00 +10°C° 0 mm 5 m/S 756 mmHg 58%
06:00 +10°C° 0 mm 5 m/S 756 mmHg 59%
07:00 +11°C° 0 mm 6 m/S 756 mmHg 54%
08:00 +14°C° 0 mm 6 m/S 756 mmHg 49%
09:00 +15°C° 0 mm 7 m/S 756 mmHg 44%
10:00 +17°C° 0 mm 7 m/S 756 mmHg 40%
11:00 +18°C° 0 mm 7 m/S 756 mmHg 36%
12:00 +21°C° 0 mm 7 m/S 756 mmHg 32%
13:00 +21°C° 0 mm 7 m/S 756 mmHg 32%
14:00 +21°C° 0 mm 7 m/S 756 mmHg 32%
15:00 +21°C° 0 mm 7 m/S 755 mmHg 32%
16:00 +19°C° 0 mm 6 m/S 755 mmHg 36%
17:00 +17°C° 0 mm 5 m/S 755 mmHg 39%
18:00 +17°C° 0 mm 4 m/S 755 mmHg 43%
19:00 +15°C° 0 mm 4 m/S 755 mmHg 45%
20:00 +15°C° 0 mm 4 m/S 756 mmHg 47%
21:00 +14°C° 0 mm 5 m/S 756 mmHg 50%
22:00 +14°C° 0 mm 5 m/S 756 mmHg 52%
23:00 +14°C° 0 mm 5 m/S 756 mmHg 55%

2 Oktober, Freitag

Zeit Temperatur Niederschläge Wind Luftdruck Luftfeuchtigkeit
00:00 +13°C° 0 mm 5 m/S 756 mmHg 57%
01:00 +13°C° 0 mm 5 m/S 756 mmHg 59%
02:00 +13°C° 0 mm 5 m/S 756 mmHg 61%
03:00 +12°C° 0 mm 5 m/S 756 mmHg 64%
04:00 +12°C° 0 mm 5 m/S 756 mmHg 65%
05:00 +12°C° 0 mm 5 m/S 756 mmHg 67%
06:00 +12°C° 0 mm 5 m/S 757 mmHg 68%
07:00 +13°C° 0 mm 6 m/S 757 mmHg 65%
08:00 +14°C° 0 mm 6 m/S 757 mmHg 61%
09:00 +15°C° 0 mm 7 m/S 757 mmHg 58%
10:00 +16°C° 0 mm 7 m/S 757 mmHg 52%
11:00 +18°C° 0 mm 7 m/S 757 mmHg 47%
12:00 +20°C° 0 mm 7 m/S 757 mmHg 42%
13:00 +20°C° 0 mm 7 m/S 757 mmHg 40%
14:00 +20°C° 0 mm 7 m/S 756 mmHg 39%
15:00 +21°C° 0 mm 7 m/S 756 mmHg 37%
16:00 +19°C° 0 mm 6 m/S 756 mmHg 41%
17:00 +17°C° 0 mm 5 m/S 756 mmHg 44%
18:00 +17°C° 0 mm 4 m/S 756 mmHg 47%
19:00 +15°C° 0 mm 4 m/S 757 mmHg 49%
20:00 +15°C° 0 mm 4 m/S 757 mmHg 50%
21:00 +14°C° 0 mm 4 m/S 757 mmHg 51%
22:00 +14°C° 0 mm 4 m/S 757 mmHg 52%
23:00 +13°C° 0 mm 4 m/S 757 mmHg 54%
Mehr zeigen